Valladolid(Mil/C, Spain

4:14 AM CET on December 09, 2016 (GMT +0100)
Villanubla

Weather History for LEVD - September, 2012

Change the Weather History Date:

Saturday, September 15, 2012

  Actual Average Record
Temperature  
Mean Temperature 68 °F -  
Max Temperature 86 °F - - ()
Min Temperature 50 °F - - ()
Cooling Degree Days 3    
Growing Degree Days 18 (Base 50)    
Moisture  
Dew Point 29 °F    
Average Humidity 24    
Maximum Humidity 50    
Minimum Humidity 10    
Precipitation  
Precipitation 0.00 in - - ()
Sea Level Pressure  
Sea Level Pressure 30.06 in    
Wind  
Wind Speed 4 mph ()    
Max Wind Speed 9 mph    
Max Gust Speed -    
T = Trace of Precipitation, MM = Missing Value Source: Averaged Metar Reports

Daily Weather History Graph

Daily Weather History Graph

Search for Another Location

Airport or City:

Trip Planner

Search our weather history database for the weather conditions in past years. The results will help you decide how hot, cold, wet, or windy it might be!

Date:

Astronomy

Sep. 15, 2012 Rise Set
Actual Time 7:59 AM CEST 8:28 PM CEST
Civil Twilight 7:31 AM CEST 8:56 PM CEST
Nautical Twilight 6:59 AM CEST 9:28 PM CEST
Astronomical Twilight 6:25 AM CEST 10:02 PM CEST
Moon 7:15 AM CEST (9/15) 7:50 PM CEST (9/15)
Length of Visible Light 13h 24m
Length of Day
12h 28m
Waning Crescent, 1% of the Moon is Illuminated
Sep 15
Waning Crescent
Sep 16
New
Sep 22
First Quarter
Sep 30
Full
Oct 8
Last Quarter

Hourly Weather History & Observations

Time (CEST) Temp. Dew Point Humidity Pressure Visibility Wind Dir Wind Speed Gust Speed Precip Events Conditions
6:00 AM 50.0 °F 30.2 °F 47% 30.09 in - ENE 6.9 mph - N/A   Clear
6:30 AM 50.0 °F 30.2 °F 47% 30.09 in - ENE 5.8 mph - N/A   Clear
7:00 AM 53.6 °F 32.0 °F 44% 30.09 in - East 9.2 mph - N/A   Clear
7:30 AM 53.6 °F 32.0 °F 44% 30.09 in - East 6.9 mph - N/A   Clear
8:00 AM 50.0 °F 32.0 °F 50% 30.09 in - ENE 5.8 mph - N/A   Clear
8:30 AM 51.8 °F 32.0 °F 47% 30.09 in - East 9.2 mph - N/A   Clear
9:00 AM 53.6 °F 32.0 °F 44% 30.09 in - East 4.6 mph - N/A   Clear
9:30 AM 55.4 °F 32.0 °F 41% 30.09 in - ENE 8.1 mph - N/A   Clear
10:00 AM 60.8 °F 32.0 °F 34% 30.09 in - East 4.6 mph - N/A   Clear
10:30 AM 62.6 °F 33.8 °F 34% 30.12 in - East 3.5 mph - N/A   Clear
11:00 AM 66.2 °F 33.8 °F 30% 30.09 in - East 3.5 mph - N/A   Clear
11:30 AM 68.0 °F 33.8 °F 28% 30.09 in - ESE 3.5 mph - N/A   Clear
12:00 PM 71.6 °F 33.8 °F 25% 30.12 in - Variable 2.3 mph - N/A   Clear
12:30 PM 73.4 °F 32.0 °F 22% 30.09 in - Calm Calm - N/A   Clear
1:00 PM 77.0 °F 32.0 °F 19% 30.09 in - ESE 1.2 mph - N/A   Clear
1:30 PM 78.8 °F 32.0 °F 18% 30.09 in - NE 1.2 mph - N/A   Clear
2:00 PM 80.6 °F 30.2 °F 16% 30.09 in - South 1.2 mph - N/A   Clear
2:30 PM 84.2 °F 30.2 °F 14% 30.06 in - South 2.3 mph - N/A   Clear
3:00 PM 86.0 °F 30.2 °F 13% 30.06 in - WSW 1.2 mph - N/A   Clear
3:30 PM 86.0 °F 28.4 °F 12% 30.06 in - West 5.8 mph - N/A   Clear
4:00 PM 86.0 °F 28.4 °F 12% 30.04 in - West 4.6 mph - N/A   Clear
4:30 PM 86.0 °F 26.6 °F 12% 30.04 in - West 4.6 mph - N/A   Clear
5:00 PM 86.0 °F 24.8 °F 11% 30.04 in - West 4.6 mph - N/A   Clear
5:30 PM 86.0 °F 23.0 °F 10% 30.01 in - NW 4.6 mph - N/A   Clear
6:00 PM 86.0 °F 23.0 °F 10% 30.01 in - NNW 1.2 mph - N/A   Clear
6:30 PM 86.0 °F 23.0 °F 10% 30.01 in - WNW 3.5 mph - N/A   Clear
7:00 PM 86.0 °F 23.0 °F 10% 30.01 in - West 4.6 mph - N/A   Clear
7:30 PM 84.2 °F 23.0 °F 11% 30.01 in - WNW 5.8 mph - N/A   Clear
8:00 PM 82.4 °F 23.0 °F 11% 30.01 in - West 3.5 mph - N/A   Clear
8:30 PM 78.8 °F 24.8 °F 14% 30.01 in - West 3.5 mph - N/A   Clear
9:00 PM 75.2 °F 26.6 °F 17% 30.01 in - NNW 2.3 mph - N/A   Clear
9:30 PM 71.6 °F 28.4 °F 20% 30.01 in - NNW 2.3 mph - N/A   Clear
10:00 PM 69.8 °F 28.4 °F 21% 30.01 in - NNW 2.3 mph - N/A   Clear
10:30 PM 68.0 °F 26.6 °F 21% 30.04 in - North 2.3 mph - N/A   Clear